User: anonymous   Login
Location: Cañada de la Miga
(34.7595°N, 106.2317°W)
Time: 02:25:56
(UTC+00:00)
Language:

Tiros 1 - Orbit

View from above orbital plane
View from above orbital plane
View from above satellite
View from above satellite

Ground track
Ground track

The orbit data is extracted from the following two-line orbital elements,

1 00029U 60002B   21333.35238619  .00000007  00000-0  32007-4 0  9991
2 00029  48.3805 327.6501 0024279 338.3166  21.6716 14.74483071296738
Epoch (UTC): 29 November 2021 08:27:26
Eccentricity: 0.0024279
inclination: 48.3805°
perigee height: 630 km
apogee height: 664 km
right ascension of ascending node: 327.6501°
argument of perigee: 338.3166°
revolutions per day: 14.74483071
mean anomaly at epoch: 21.6716°
orbit number at epoch: 29673

The dashed part of the orbit path shows where the satellite is in the earth's shadow,  

DLR